WZZ4KK LBSF-LIPR

Flight info

Callsign WZZ4KK
Flight time 1h 18m
Altitude 38000
Route OGOTA L615 OBLAK DCT RAVAK DCT TORPO M730 ANC
Aircraft A321/M-SDE1E2E3FGIJ1J4RWXY/LB1

Departure

Time 2026-04-15 15:36
Airport Sofia Airport (LBSF)

Arrival

Time 2026-04-15 16:54
Airport Federico Fellini International Airport (LIPR)
Time Latitude Longitude Altitude Speed Heading
2026-04-15 15:14 42.69048 23.40470 1749 ft 0 kts 196°
2026-04-15 15:33 42.69014 23.40453 1746 ft 10 kts 214°
2026-04-15 15:33 42.69025 23.40321 1745 ft 20 kts 286°
2026-04-15 15:33 42.69069 23.40114 1749 ft 23 kts 287°
2026-04-15 15:33 42.69104 23.39908 1748 ft 22 kts 283°
2026-04-15 15:34 42.69145 23.39715 1746 ft 21 kts 285°
2026-04-15 15:34 42.69201 23.39547 1746 ft 18 kts 334°
2026-04-15 15:34 42.69319 23.39553 1748 ft 17 kts
2026-04-15 15:34 42.69450 23.39568 1748 ft 18 kts
2026-04-15 15:35 42.69578 23.39583 1745 ft 18 kts
2026-04-15 15:35 42.69706 23.39597 1749 ft 18 kts
2026-04-15 15:35 42.69772 23.39647 1747 ft 9 kts 94°
2026-04-15 15:35 42.69762 23.39812 1750 ft 43 kts 94°
2026-04-15 15:36 42.69716 23.40580 1747 ft 117 kts 94°
2026-04-15 15:36 42.69632 23.41953 1827 ft 166 kts 96°
2026-04-15 15:36 42.69525 23.43477 2684 ft 161 kts 95°
2026-04-15 15:36 42.69423 23.44997 3496 ft 161 kts 96°
2026-04-15 15:37 42.69323 23.46521 4372 ft 163 kts 96°
2026-04-15 15:37 42.69293 23.48075 5063 ft 171 kts 80°
2026-04-15 15:37 42.70009 23.49447 5387 ft 195 kts 33°
2026-04-15 15:37 42.71376 23.49991 5642 ft 218 kts
2026-04-15 15:38 42.72968 23.50222 5887 ft 243 kts
2026-04-15 15:38 42.74734 23.50492 6235 ft 268 kts
2026-04-15 15:38 42.76641 23.50798 6819 ft 281 kts
2026-04-15 15:38 42.78601 23.50830 7588 ft 284 kts 348°
2026-04-15 15:39 42.80429 23.49848 8420 ft 284 kts 324°
2026-04-15 15:39 42.81933 23.48097 9261 ft 286 kts 315°
2026-04-15 15:39 42.83400 23.46241 10109 ft 289 kts 315°
2026-04-15 15:39 42.84910 23.44310 10510 ft 309 kts 314°
2026-04-15 15:40 42.86532 23.42228 10826 ft 329 kts 315°
2026-04-15 15:40 42.88222 23.40062 11461 ft 337 kts 315°
2026-04-15 15:40 42.89920 23.37895 12173 ft 341 kts 315°
2026-04-15 15:40 42.91668 23.35675 12833 ft 346 kts 315°
2026-04-15 15:41 42.93445 23.33419 13491 ft 352 kts 315°
2026-04-15 15:41 42.95252 23.31121 14147 ft 357 kts 315°
2026-04-15 15:41 42.97074 23.28797 14793 ft 360 kts 315°
2026-04-15 15:41 42.98908 23.26456 15491 ft 361 kts 315°
2026-04-15 15:42 43.00752 23.24101 16187 ft 364 kts 315°
2026-04-15 15:42 43.02611 23.21727 16902 ft 367 kts 316°
2026-04-15 15:42 43.04480 23.19336 17613 ft 370 kts 315°
2026-04-15 15:42 43.06361 23.16922 18298 ft 372 kts 315°
2026-04-15 15:43 43.08257 23.14491 18916 ft 375 kts 315°
2026-04-15 15:43 43.10165 23.12047 19531 ft 377 kts 315°
2026-04-15 15:43 43.12085 23.09584 20128 ft 380 kts 315°
2026-04-15 15:43 43.14015 23.07099 20741 ft 382 kts 315°
2026-04-15 15:44 43.15955 23.04598 21361 ft 384 kts 315°
2026-04-15 15:44 43.17272 23.02902 21774 ft 386 kts 315°
2026-04-15 15:44 43.19207 23.00407 22373 ft 388 kts 315°
2026-04-15 15:44 43.21204 22.97830 22981 ft 391 kts 315°
2026-04-15 15:45 43.23161 22.95304 23619 ft 392 kts 315°
2026-04-15 15:45 43.25152 22.92735 24112 ft 394 kts 315°
2026-04-15 15:45 43.27152 22.90151 24581 ft 396 kts 315°
2026-04-15 15:45 43.29166 22.87546 25031 ft 399 kts 315°
2026-04-15 15:46 43.31188 22.84925 25466 ft 401 kts 315°
2026-04-15 15:46 43.33222 22.82284 25923 ft 403 kts 315°
2026-04-15 15:46 43.35256 22.79612 26328 ft 406 kts 312°
2026-04-15 15:46 43.37037 22.76608 26728 ft 407 kts 302°
2026-04-15 15:47 43.38414 22.73214 27167 ft 407 kts 292°
2026-04-15 15:47 43.39447 22.69581 27597 ft 409 kts 290°
2026-04-15 15:47 43.40464 22.65924 28017 ft 411 kts 290°
2026-04-15 15:47 43.41495 22.62247 28453 ft 413 kts 290°
2026-04-15 15:48 43.42535 22.58548 28878 ft 416 kts 290°
2026-04-15 15:48 43.43577 22.54830 29293 ft 418 kts 289°
2026-04-15 15:48 43.44620 22.51090 29709 ft 420 kts 289°
2026-04-15 15:48 43.45669 22.47318 30105 ft 422 kts 289°
2026-04-15 15:49 43.46719 22.43533 30445 ft 424 kts 289°
2026-04-15 15:49 43.47772 22.39732 30801 ft 426 kts 289°
2026-04-15 15:49 43.48829 22.35911 31167 ft 427 kts 289°
2026-04-15 15:49 43.49887 22.32082 31544 ft 428 kts 289°
2026-04-15 15:50 43.50944 22.28241 31917 ft 429 kts 288°
2026-04-15 15:50 43.52000 22.24405 32439 ft 427 kts 288°
2026-04-15 15:50 43.53049 22.20591 32974 ft 424 kts 288°
2026-04-15 15:50 43.54090 22.16809 33518 ft 421 kts 288°
2026-04-15 15:51 43.55120 22.13051 34029 ft 418 kts 288°
2026-04-15 15:51 43.56144 22.09311 34463 ft 416 kts 288°
2026-04-15 15:51 43.57160 22.05585 34823 ft 415 kts 288°
2026-04-15 15:51 43.58176 22.01856 35156 ft 416 kts 288°
2026-04-15 15:52 43.59178 21.98168 35476 ft 416 kts 288°
2026-04-15 15:52 43.60191 21.94429 35774 ft 417 kts 288°
2026-04-15 15:52 43.61206 21.90676 36079 ft 418 kts 288°
2026-04-15 15:52 43.62225 21.86914 36380 ft 419 kts 288°
2026-04-15 15:53 43.63246 21.83150 36663 ft 419 kts 288°
2026-04-15 15:53 43.64270 21.79377 36944 ft 420 kts 288°
2026-04-15 15:53 43.65293 21.75597 37220 ft 420 kts 288°
2026-04-15 15:53 43.66313 21.71806 37483 ft 421 kts 288°
2026-04-15 15:54 43.67328 21.68010 37747 ft 422 kts 289°
2026-04-15 15:54 43.68251 21.64159 37908 ft 423 kts 282°
2026-04-15 15:54 43.68746 21.60157 38057 ft 424 kts 274°
2026-04-15 15:54 43.68848 21.56098 38095 ft 423 kts 270°
2026-04-15 15:55 43.68950 21.47987 38093 ft 422 kts 270°
2026-04-15 15:55 43.69052 21.39881 38092 ft 422 kts 270°
2026-04-15 15:56 43.69149 21.31780 38092 ft 422 kts 270°
2026-04-15 15:56 43.69248 21.23669 38093 ft 423 kts 270°
2026-04-15 15:57 43.69334 21.15530 38102 ft 424 kts 270°
2026-04-15 15:57 43.69408 21.07377 38106 ft 424 kts 270°
2026-04-15 15:58 43.69480 20.99218 38116 ft 425 kts 270°
2026-04-15 15:58 43.69548 20.91053 38121 ft 425 kts 270°
2026-04-15 15:59 43.69614 20.82871 38122 ft 426 kts 270°
2026-04-15 15:59 43.69674 20.74679 38124 ft 427 kts 270°
2026-04-15 16:00 43.69728 20.66479 38129 ft 427 kts 270°
2026-04-15 16:00 43.69771 20.58266 38124 ft 427 kts 270°
2026-04-15 16:01 43.69805 20.50050 38133 ft 427 kts 269°
2026-04-15 16:01 43.69840 20.41838 38131 ft 428 kts 270°
2026-04-15 16:02 43.69873 20.33599 38123 ft 428 kts 269°
2026-04-15 16:02 43.69895 20.25364 38132 ft 429 kts 269°
2026-04-15 16:03 43.69914 20.17126 38138 ft 429 kts 269°
2026-04-15 16:03 43.69925 20.08943 38145 ft 429 kts 269°
2026-04-15 16:04 43.69925 20.00712 38146 ft 428 kts 269°
2026-04-15 16:04 43.69918 19.92491 38138 ft 428 kts 269°
2026-04-15 16:05 43.69906 19.84267 38136 ft 428 kts 269°
2026-04-15 16:05 43.69897 19.76057 38136 ft 427 kts 269°
2026-04-15 16:06 43.69881 19.67840 38124 ft 428 kts 269°
2026-04-15 16:06 43.69857 19.59614 38132 ft 428 kts 269°
2026-04-15 16:07 43.69825 19.51380 38127 ft 429 kts 269°
2026-04-15 16:08 43.69768 19.39014 38129 ft 429 kts 269°
2026-04-15 16:08 43.69723 19.30751 38121 ft 430 kts 268°
2026-04-15 16:09 43.69672 19.22467 38121 ft 432 kts 268°
2026-04-15 16:09 43.69611 19.14156 38128 ft 433 kts 268°
2026-04-15 16:10 43.69548 19.05821 38136 ft 434 kts 268°
2026-04-15 16:10 43.69476 18.97479 38134 ft 434 kts 268°
2026-04-15 16:11 43.69399 18.89129 38131 ft 435 kts 269°
2026-04-15 16:11 43.69320 18.80754 38128 ft 437 kts 269°
2026-04-15 16:12 43.69233 18.72342 38134 ft 438 kts 269°
2026-04-15 16:12 43.69137 18.63923 38142 ft 439 kts 269°
2026-04-15 16:13 43.69030 18.55491 38154 ft 439 kts 268°
2026-04-15 16:13 43.68919 18.47050 38147 ft 440 kts 268°
2026-04-15 16:14 43.68807 18.38602 38145 ft 440 kts 268°
2026-04-15 16:14 43.68689 18.30148 38153 ft 440 kts 268°
2026-04-15 16:15 43.68557 18.21696 38153 ft 440 kts 268°
2026-04-15 16:15 43.68419 18.13246 38151 ft 440 kts 268°
2026-04-15 16:16 43.68280 18.04805 38143 ft 439 kts 268°
2026-04-15 16:16 43.68137 17.96368 38142 ft 439 kts 268°
2026-04-15 16:17 43.67988 17.87928 38135 ft 440 kts 268°
2026-04-15 16:17 43.67834 17.79543 38139 ft 440 kts 268°
2026-04-15 16:18 43.67669 17.71041 38120 ft 440 kts 268°
2026-04-15 16:18 43.67497 17.62634 38120 ft 441 kts 268°
2026-04-15 16:19 43.67319 17.54159 38122 ft 441 kts 268°
2026-04-15 16:19 43.67135 17.45683 38122 ft 442 kts 268°
2026-04-15 16:20 43.66943 17.37197 38126 ft 442 kts 268°
2026-04-15 16:20 43.66745 17.28703 38119 ft 443 kts 267°
2026-04-15 16:21 43.66536 17.20189 38120 ft 444 kts 268°
2026-04-15 16:21 43.66325 17.11664 38119 ft 444 kts 267°
2026-04-15 16:22 43.66110 17.03139 38116 ft 444 kts 268°
2026-04-15 16:22 43.65890 16.94613 38113 ft 444 kts 267°
2026-04-15 16:23 43.65668 16.86081 38108 ft 445 kts 268°
2026-04-15 16:23 43.65437 16.77538 38109 ft 445 kts 267°
2026-04-15 16:24 43.65195 16.68998 38111 ft 445 kts 267°
2026-04-15 16:24 43.64940 16.60460 38110 ft 446 kts 267°
2026-04-15 16:25 43.64680 16.51904 38112 ft 446 kts 267°
2026-04-15 16:25 43.64417 16.43351 38108 ft 446 kts 267°
2026-04-15 16:26 43.64148 16.34796 38104 ft 446 kts 267°
2026-04-15 16:26 43.63876 16.26232 38103 ft 446 kts 267°
2026-04-15 16:27 43.63596 16.17671 38107 ft 447 kts 267°
2026-04-15 16:27 43.63301 16.09108 38108 ft 447 kts 267°
2026-04-15 16:28 43.63008 16.00541 38107 ft 447 kts 267°
2026-04-15 16:28 43.62715 15.92039 38107 ft 447 kts 267°
2026-04-15 16:29 43.62408 15.83411 38103 ft 447 kts 267°
2026-04-15 16:29 43.62087 15.74835 38111 ft 448 kts 267°
2026-04-15 16:30 43.61817 15.67703 38108 ft 448 kts 267°
2026-04-15 16:30 43.61440 15.57727 38121 ft 448 kts 267°
2026-04-15 16:31 43.61107 15.49152 38128 ft 447 kts 267°
2026-04-15 16:31 43.60827 15.42026 38036 ft 448 kts 267°
2026-04-15 16:31 43.60653 15.37730 37305 ft 449 kts 267°
2026-04-15 16:32 43.60477 15.33439 36589 ft 448 kts 266°
2026-04-15 16:32 43.60299 15.29140 35903 ft 450 kts 266°
2026-04-15 16:32 43.60121 15.24819 35232 ft 452 kts 266°
2026-04-15 16:32 43.59941 15.20483 34570 ft 454 kts 266°
2026-04-15 16:33 43.59761 15.16129 33905 ft 455 kts 266°
2026-04-15 16:33 43.59577 15.11764 33165 ft 457 kts 266°
2026-04-15 16:33 43.59391 15.07387 32457 ft 457 kts 266°
2026-04-15 16:33 43.59204 15.03003 31744 ft 458 kts 266°
2026-04-15 16:34 43.59013 14.98621 31054 ft 458 kts 266°
2026-04-15 16:34 43.58821 14.94246 30388 ft 457 kts 266°
2026-04-15 16:34 43.58627 14.89875 29638 ft 456 kts 266°
2026-04-15 16:34 43.58432 14.85524 28883 ft 454 kts 266°
2026-04-15 16:35 43.58236 14.81192 28152 ft 451 kts 266°
2026-04-15 16:35 43.58040 14.76891 27434 ft 449 kts 266°
2026-04-15 16:35 43.57843 14.72607 26736 ft 446 kts 265°
2026-04-15 16:35 43.57645 14.68350 26055 ft 444 kts 265°
2026-04-15 16:36 43.57447 14.64120 25480 ft 440 kts 265°
2026-04-15 16:36 43.57250 14.59925 25031 ft 438 kts 265°
2026-04-15 16:36 43.57054 14.55798 24607 ft 436 kts 265°
2026-04-15 16:36 43.56856 14.51645 24190 ft 434 kts 265°
2026-04-15 16:37 43.56656 14.47507 23774 ft 432 kts 265°
2026-04-15 16:37 43.56460 14.43386 23292 ft 429 kts 266°
2026-04-15 16:37 43.56491 14.39286 22810 ft 427 kts 271°
2026-04-15 16:37 43.56602 14.35210 22330 ft 424 kts 271°
2026-04-15 16:38 43.56710 14.31164 21855 ft 421 kts 271°
2026-04-15 16:38 43.56811 14.27143 21390 ft 418 kts 271°
2026-04-15 16:38 43.56907 14.23154 20934 ft 415 kts 271°
2026-04-15 16:38 43.56999 14.19188 20489 ft 412 kts 271°
2026-04-15 16:39 43.57091 14.15252 20040 ft 410 kts 271°
2026-04-15 16:39 43.57183 14.11336 19608 ft 407 kts 271°
2026-04-15 16:39 43.57281 14.07448 19178 ft 404 kts 271°
2026-04-15 16:39 43.57383 14.03530 18747 ft 402 kts 271°
2026-04-15 16:40 43.57486 13.99745 18328 ft 399 kts 271°
2026-04-15 16:40 43.57588 13.95931 17839 ft 397 kts 271°
2026-04-15 16:40 43.57685 13.92138 17370 ft 395 kts 271°
2026-04-15 16:40 43.57777 13.88365 16894 ft 392 kts 271°
2026-04-15 16:41 43.57866 13.84612 16441 ft 390 kts 271°
2026-04-15 16:41 43.57950 13.80883 15991 ft 390 kts 271°
2026-04-15 16:41 43.58031 13.77147 15545 ft 388 kts 271°
2026-04-15 16:41 43.58111 13.73435 15112 ft 387 kts 271°
2026-04-15 16:42 43.58188 13.69734 14671 ft 385 kts 271°
2026-04-15 16:42 43.58266 13.66054 14243 ft 383 kts 271°
2026-04-15 16:42 43.58341 13.62385 13803 ft 382 kts 271°
2026-04-15 16:42 43.58414 13.58739 13333 ft 380 kts 271°
2026-04-15 16:43 43.58483 13.55106 12858 ft 377 kts 271°
2026-04-15 16:43 43.58555 13.51496 12396 ft 376 kts 272°
2026-04-15 16:43 43.58952 13.47956 11939 ft 374 kts 286°
2026-04-15 16:43 43.59954 13.44669 11497 ft 371 kts 301°
2026-04-15 16:44 43.61400 13.41731 11131 ft 370 kts 306°
2026-04-15 16:44 43.62884 13.38839 10764 ft 368 kts 306°
2026-04-15 16:44 43.64356 13.35960 10400 ft 366 kts 305°
2026-04-15 16:44 43.65816 13.33098 10043 ft 364 kts 305°
2026-04-15 16:45 43.67267 13.30248 9650 ft 362 kts 305°
2026-04-15 16:45 43.68714 13.27408 9257 ft 360 kts 305°
2026-04-15 16:45 43.70149 13.24591 8860 ft 358 kts 305°
2026-04-15 16:45 43.71575 13.21785 8481 ft 355 kts 305°
2026-04-15 16:46 43.72989 13.18995 8111 ft 353 kts 305°
2026-04-15 16:46 43.74384 13.16242 7737 ft 346 kts 305°
2026-04-15 16:46 43.75746 13.13555 7405 ft 337 kts 305°
2026-04-15 16:46 43.77072 13.10934 7089 ft 329 kts 305°
2026-04-15 16:47 43.78373 13.08358 6770 ft 323 kts 305°
2026-04-15 16:47 43.79645 13.05836 6466 ft 317 kts 305°
2026-04-15 16:47 43.80892 13.03361 6116 ft 309 kts 305°
2026-04-15 16:47 43.82103 13.00953 5758 ft 300 kts 305°
2026-04-15 16:48 43.83262 12.98645 5412 ft 292 kts 306°
2026-04-15 16:48 43.84418 12.96341 5061 ft 284 kts 306°
2026-04-15 16:48 43.85515 12.94155 4714 ft 277 kts 306°
2026-04-15 16:48 43.86609 12.91981 4355 ft 272 kts 306°
2026-04-15 16:49 43.87607 12.89793 4001 ft 266 kts 295°
2026-04-15 16:49 43.88312 12.87448 3652 ft 261 kts 293°
2026-04-15 16:49 43.88993 12.85143 3291 ft 256 kts 293°
2026-04-15 16:49 43.89803 12.83003 3027 ft 245 kts 306°
2026-04-15 16:50 43.90794 12.81192 3016 ft 224 kts 310°
2026-04-15 16:50 43.91717 12.79579 2996 ft 204 kts 310°
2026-04-15 16:50 43.92565 12.78079 2863 ft 192 kts 310°
2026-04-15 16:50 43.93363 12.76659 2625 ft 182 kts 310°
2026-04-15 16:51 43.94120 12.75310 2386 ft 173 kts 310°
2026-04-15 16:51 43.94851 12.74008 2159 ft 169 kts 310°
2026-04-15 16:51 43.95569 12.72727 1928 ft 167 kts 310°
2026-04-15 16:51 43.96266 12.71482 1707 ft 159 kts 309°
2026-04-15 16:52 43.96927 12.70302 1535 ft 149 kts 309°
2026-04-15 16:52 43.97547 12.69194 1311 ft 142 kts 309°
2026-04-15 16:52 43.98146 12.68125 1111 ft 138 kts 310°
2026-04-15 16:52 43.98729 12.67082 934 ft 135 kts 310°
2026-04-15 16:53 43.99300 12.66063 741 ft 133 kts 309°
2026-04-15 16:53 43.99866 12.65054 568 ft 132 kts 308°
2026-04-15 16:53 44.00431 12.64047 392 ft 132 kts 308°
2026-04-15 16:53 44.00990 12.63042 213 ft 131 kts 307°
2026-04-15 16:54 44.01543 12.62044 53 ft 126 kts 307°
2026-04-15 16:54 44.02000 12.61229 43 ft 84 kts 308°
2026-04-15 16:54 44.02219 12.60837 49 ft 18 kts 308°
2026-04-15 16:54 44.02307 12.60831 47 ft 11 kts 37°
2026-04-15 16:55 44.02377 12.60904 46 ft 14 kts 37°
2026-04-15 16:55 44.02373 12.60992 45 ft 11 kts 127°
2026-04-15 16:55 44.02313 12.61103 46 ft 17 kts 127°
2026-04-15 16:55 44.02238 12.61237 47 ft 18 kts 128°
2026-04-15 16:56 44.02184 12.61332 45 ft 9 kts 128°
2026-04-15 16:56 44.02132 12.61425 47 ft 16 kts 128°
2026-04-15 16:56 44.02060 12.61557 47 ft 14 kts 117°
2026-04-15 16:56 44.02103 12.61644 46 ft 12 kts 38°
2026-04-15 16:57 44.02179 12.61725 46 ft 15 kts 38°
2026-04-15 16:57 44.02180 12.61795 47 ft 6 kts 102°
2026-04-15 16:57 44.02205 12.61836 47 ft 2 kts 37°
2026-04-15 16:57 44.02216 12.61848 47 ft 0 kts 37°
2026-04-15 16:58 44.02217 12.61848 47 ft 0 kts 37°